Regional Weather Roundup
Issued by NWS Grand Forks, ND

Home | Current Version | Previous Version | Graphics & Text | Print | Product List | Glossary On
Versions: 1 2 3 4 5 6 7 8 9 10 11 12 13 14 15 16 17 18 19 20 21 22 23 24 25 26 27 28 29 30 31 32 33 34 35 36 37 38 39 40 41 42 43 44 45 46 47 48 49 50
000
ASUS43 KFGF 231531
RWRFGF
PRAIRIE TO PINES  WEATHER ROUNDUP
NATIONAL WEATHER SERVICE EASTERN NORTH DAKOTA/GRAND FORKS ND
900 AM CST THU NOV 23 2017

 **SATELLITE DATA USED TO AUGMENT SKY COVER AT AUTOMATED STATIONS**
 *****  WEATHER ACROSS EASTERN NORTH DAKOTA  *****

CITY           SKY/WX    TMP DP  RH WIND       PRES   REMARKS
GRAND FORKS    CLOUDY    30  29  96 S8        29.85F WCI  22
GRAND FRKS AFB CLOUDY    30  28  93 S9        29.83F WCI  22
GRAND FRKS NWS   N/A     30 N/A N/A S3          N/A
DEVILS LAKE    FAIR      24  22  91 SE7       29.78F WCI  16
FARGO          CLOUDY    29  28  96 S8        29.89F FOG     WCI  21
WAHPETON ARPT  NOT AVBL
$$

 ***** WEATHER ACROSS CENTRAL AND WESTERN NORTH DAKOTA  *****

CITY           SKY/WX    TMP DP  RH WIND       PRES   REMARKS
BISMARCK       FAIR      31  28  89 SE3       29.80F
MINOT          FAIR      38  33  82 SW13      29.68F
JAMESTOWN      FAIR      29  25  85 S13       29.79F WCI  19
MINOT AFB      FAIR      26  24  93 CALM      29.67F
GARRISON         N/A     35  35 100 S6        29.73F
WILLISTON      FAIR      35  33  92 SW9       29.70F
DICKINSON      FAIR      48  39  71 SW16      29.76F
HETTINGER      FAIR      42  36  79 CALM      29.86F
$$

 *****  OTHER AIRPORT OBSERVATIONS IN OUR AREA  *****

CITY           SKY/WX    TMP DP  RH WIND       PRES   REMARKS
WALHALLA       FAIR      25  25 100 SE5       29.82F WCI  19
GRAFTON AIRPOR CLOUDY    27  27 100 SE8       29.85F WCI  18
VALLEY CITY AR FAIR      25  27 100 S10       29.83S WCI  15
CANDO          FAIR      25  25 100 SE9       29.75F WCI  15
CAVALIER APRT  CLOUDY    25  25 100 SE3       29.82F FOG
GWINNER          N/A     27  27 100 S10       29.85F WCI  17
SHEYENNE NWR     N/A     25  25 100 S6        29.95S WCI  18
ROLLA          FAIR      19  19 100 SE6       29.72F WCI  11
 ***** THE ABOVE OBSERVATIONS ARE NON NWS ARE NOT QUALITY
       CONTROLLED AND MAY MIS-REPORT RAIN FOR SNOW...
$$

  *****  WEATHER ACROSS NORTHERN MINNESOTA  *****

CITY           SKY/WX    TMP DP  RH WIND       PRES   REMARKS
FLAG ISLAND    CLOUDY    21  18  86 CALM      29.83F
WARROAD        FAIR      21  18  86 CALM      29.86S
ROSEAU         MOCLDY    21  18  86 CALM      29.85S
HALLOCK        CLOUDY    25  25 100 S8        29.83F FOG     WCI  16
THF RVR FALLS  FOG       25  24  96 S5        29.87F VSB 1/4 WCI  19
BAUDETTE       CLOUDY    19  16  88 CALM      29.85S
WASKISH        MOCLDY    23  19  86 SW6       29.86F WCI  16
CROOKSTON      CLOUDY    28  25  86 S8        29.87F WCI  20
STEPHEN NDAWN    N/A     25  25 100 SE5         N/A  WCI  19
GREENBUSH NDAW   N/A     23  21  93 S3          N/A
$$
  *****  WEATHER ACROSS CENTRAL AND WEST MINNESOTA  *****

CITY           SKY/WX    TMP DP  RH WIND       PRES   REMARKS
FOSSTON        FOG       23  21  93 S6        29.88S VSB 1/2 WCI  16
BEMIDJI        FOG       19  19  96 CALM      29.87S VSB 1/2
PARK RAPIDS    FAIR      18  15  88 CALM      29.87F
ELBOW LAKE     FAIR      22  18  85 SW3       29.92F FOG
WADENA         FAIR      23  19  86 W5        29.89S WCI  17
DETROIT LAKES  FOG       27  27 100 SW3       29.90S VSB 1/2
MOORHEAD       CLOUDY    27  25  93 CALM      29.89F FOG
FERGUS FALLS   PTSUNNY   21  19  93 S3        29.94F
MORRIS MN      FAIR      27  21  80 CALM      29.92S
STAPLES        FAIR      23  19  86 CALM      29.90S
$$
  *****  WEATHER ELSEWHERE ACROSS MINNESOTA  *****

CITY           SKY/WX    TMP DP  RH WIND       PRES   REMARKS
DULUTH         FAIR      23  20  88 W8        29.87R WCI  14
INTRNTL FALLS  CLOUDY    21  16  81 W3        29.85F
ELY            CLOUDY    19  18  93 W6        29.84F WCI  11
CLOQUET        PTSUNNY   25  19  80 W6        29.88F WCI  18
WHEATON        FAIR      27  21  80 CALM      29.93F
BRAINERD       FAIR      18  15  88 S3        29.91R
HIBBING        CLOUDY    18  16  92 CALM      29.86F
ALEXANDRIA     FAIR      26  21  81 W6        29.91F WCI  19
SAINT CLOUD    FAIR      25  20  81 CALM      29.93R
MINNEAPOLIS    FAIR      30  21  69 CALM      29.94F
$$

  *****  WEATHER ACROSS SOUTH DAKOTA  *****

CITY           SKY/WX    TMP DP  RH WIND       PRES   REMARKS
SIOUX FALLS    FAIR      34  26  72 SW3       29.98F
BROOKINGS      FAIR      29  24  82 SW3       29.95F
WATERTOWN      FAIR      27  24  89 S5        29.92S WCI  22
HURON          FAIR      30  25  81 S8        29.95F WCI  22
SISSETON         N/A     28  23  81 S5        29.91F WCI  23
ABERDEEN       FAIR      28  25  88 S13       29.90F WCI  17
MITCHELL       FAIR      34  29  82 S7        29.98F
PIERRE         FAIR      39  37  92 SW3       29.90F
MOBRIDGE       FAIR      38  35  89 S8        29.84S
RAPID CITY     FAIR      46  37  71 CALM      29.95F
$$

  *****  SOME WEATHER IN NEARBY STATES *****

CITY           SKY/WX    TMP DP  RH WIND       PRES   REMARKS
GLASGOW MT     FAIR      50  40  68 W9        29.68F
GREAT FALLS MT FAIR      57  36  45 SW17G26   29.76F
CHEYENNE WY    FAIR      51  34  52 NW12G26   30.20R
SCOTTSBLUFF NE FAIR      38  35  89 CALM      30.11R
OMAHA NE       PTSUNNY   40  31  70 N3        30.03R
DES MOINES IA  PTSUNNY   38  25  59 NW8       29.99R
DAVENPORT IA   FAIR      34  21  59 SW10      30.00F
CHICAGO IL     FAIR      37  21  52 SW13      30.02F
EAU CLAIRE WI  FAIR      25  20  81 SW3       29.94R
LA CROSSE WI   FAIR      33  21  61 S6        29.95F
$$

  *****  SOME NATIONAL WEATHER *****

CITY           SKY/WX    TMP DP  RH WIND       PRES   REMARKS
LA GUARDIA NY  FAIR      37  20  50 NW8       30.12S
RALEIGH NC     PTSUNNY   42  26  53 NE10      30.18S
ATLANTA GA     PTSUNNY   50  34  54 E10       30.09R
NEW ORLEANS LA FAIR      48  38  68 N9        30.12R
OKLAHOMA CITY  FAIR      42  25  50 SW8       30.13S
ALBUQUERQUE NM PTSUNNY   44  28  53 N6        30.37R
SALT LAKE CITY MOCLDY    49  40  71 SE9       30.26R
LOS ANGELES CA FAIR      71  40  32 NE6       30.01S
BOISE ID       FAIR      46  44  93 NE3       30.08F
SEATTLE WA     LGT RAIN  54  53  97 SW8       29.82S
$$

*** WEATHER ACROSS MANITOBA...SASKATCHEWAN AND ONTARIO ***
                ***ONTARIO***

CITY           SKY/WX    TMP DP  RH WIND       PRES   REMARKS
GERALDTON      FLURRIES  19  16  86 NW5       29.72S WCI  13
THUNDER BAY    PTSUNNY   25  19  80 W9        29.83S WCI  15
SIOUX LOOKOUT  FLURRIES  19  12  73 NW10      29.79S WCI   8
TORONTO        CLOUDY    34  19  55 SW9       30.04F
BIG TROUT LK   FLURRIES   7   1  78 N7        29.78R WCI  -5
PICKLE LAKE    MOCLDY     7   3  85 W8        29.77S WCI  -6
DRYDEN         CLOUDY    19  16  86 W10       29.80R WCI   8
KENORA         MOCLDY    19  16  86 VRB2      29.80F
$$
                *** MANITOBA***

CITY           SKY/WX    TMP DP  RH WIND       PRES   REMARKS
BRANDON        CLOUDY    21  19  93 E8        29.75F FOG     WCI  12
DAUPHIN        PTCLDY    19  14  79 SE13      29.72F WCI   7
ISLAND LAKE    PTCLDY     3   0  85 NW3       29.82S
PILOT MOUND      N/A     25  23  93 E9          N/A  WCI  15
THE PAS        FLURRIES   9   3  78 SE10      29.72F WCI  -6
THOMPSON       CRYSTALS -17 -22  76 CALM      29.79F
WINNIPEG       MOCLDY    19  16  86 E7        29.83F WCI  10
LYNN LAKE      CLOUDY   -11 -15  84 VRB2      29.69F
CHURCHILL      PTCLDY    -6 -11  77 W16       29.65F WCI -28
GILLAM         PTCLDY    -6 -13  71 W10       29.77  WCI -23
$$
                ***SASKATCHEWAN***

CITY           SKY/WX    TMP DP  RH WIND       PRES   REMARKS
ESTEVAN        PTCLDY    27  27 100 S6        29.62F WCI  20
KINDERSLEY     MOCLDY    41  36  81 SW25G31   29.37F
LLOYDMINSTER   CLOUDY    18  16  93 E6        29.29S WCI   9
PRINCE ALBERT  CLOUDY    14  12  92 E14       29.47F WCI  -1
REGINA         PTCLDY    21  19  93 SE8       29.54F WCI  12
YORKTON        CLOUDY    21  19  93 SE13G24   29.60F FOG     WCI   9
N. BATTLEFORD  CLOUDY    19  16  86 E18G25    29.37R WCI   4
LA RONGE       FLURRIES   9   5  85 E13       29.49F WCI  -7
SASKATOON      MOCLDY    19  18  93 SE13      29.41F WCI   7
SWIFT CURRENT  CLEAR     45  37  76 SW26G32   29.47F
$$
NOTE: THESE ARE AUTOMATED STATIONS WITH LIMITED QUALITY CONTROL
      "FAIR" INDICATES FEW OR NO CLOUDS BELOW 12,000 FEET WITH NO
      SIGNIFICANT WEATHER AND/OR OBSTRUCTIONS TO VISIBILITY.
      SKY/WX - SKY CONDITION AND SIGNIFICANT WEATHER.
      TMP - AIR TEMPERATURE.    DP   - DEWPOINT TEMPERATURE.
      RH  - RELATIVE HUMIDITY.  PRES - PRESSURE.
      HX  - HEAT INDEX.         WCI  - WIND CHILL INDEX.
$




USA.gov is the U.S. government's official web portal to all federal, state and local government web resources and services.